Oakland, MD

2:13 AM EDT on May 24, 2017 (GMT -0400)
Oakland

Weather History for K2G4 - September, 2012

Change the Weather History Date:

Sunday, September 30, 2012

  Actual Average (KMGW) Record (KMGW)
Temperature  
Mean Temperature 51 °F -  
Max Temperature 60 °F 69 °F 91 °F (1953)
Min Temperature 42 °F 49 °F 33 °F (1992)
Degree Days  
Heating Degree Days 14    
Growing Degree Days 1 (Base 50)    
Moisture  
Dew Point 44 °F    
Average Humidity 91    
Maximum Humidity 100    
Minimum Humidity 51    
Precipitation  
Precipitation 0.00 in - - ()
Sea Level Pressure  
Sea Level Pressure 29.91 in    
Wind  
Wind Speed 5 mph (WSW)    
Max Wind Speed 13 mph    
Max Gust Speed 22 mph    
Visibility 9 miles    
Events      
Averages and records for this station are not official NWS values.
T = Trace of Precipitation, MM = Missing Value Source: NWS Daily Summary

Daily Weather History Graph

Daily Weather History Graph

Search for Another Location

Airport or City:

Trip Planner

Search our weather history database for the weather conditions in past years. The results will help you decide how hot, cold, wet, or windy it might be!

Date:

Astronomy

Sep. 30, 2012 Rise Set
Actual Time 7:13 AM EDT 7:00 PM EDT
Civil Twilight 6:46 AM EDT 7:27 PM EDT
Nautical Twilight 6:14 AM EDT 7:58 PM EDT
Astronomical Twilight 5:43 AM EDT 8:30 PM EDT
Moon 7:04 PM EDT (9/30) 7:41 AM EDT (9/30)
Length of Visible Light 12h 41m
Length of Day
11h 47m
Full, 100% of the Moon is Illuminated
Sep 30
Full
Oct 8
Last Quarter
Oct 15
New
Oct 21
First Quarter
Oct 29
Full

Hourly Weather History & Observations

Time (EDT) Temp. Windchill Dew Point Humidity Pressure Visibility Wind Dir Wind Speed Gust Speed Precip Events Conditions
12:10 AM 46.4 °F 43.5 °F 42.8 °F 87% 29.97 in 10.0 mi SW 5.8 mph - N/A   Clear
12:35 AM 46.4 °F 43.5 °F 42.8 °F 87% 29.96 in 10.0 mi SW 5.8 mph - N/A   Scattered Clouds
12:55 AM 46.4 °F 44.3 °F 42.8 °F 87% 29.95 in 10.0 mi SW 4.6 mph - N/A   Mostly Cloudy
1:15 AM 46.4 °F 43.5 °F 42.8 °F 87% 29.95 in 10.0 mi NNW 5.8 mph - N/A   Overcast
1:35 AM 44.6 °F 43.1 °F 42.8 °F 93% 29.96 in 10.0 mi NW 3.5 mph - N/A   Overcast
2:00 AM 44.6 °F 42.2 °F 42.8 °F 93% 29.96 in 10.0 mi WNW 4.6 mph - N/A   Mostly Cloudy
2:20 AM 44.6 °F 42.2 °F 42.8 °F 93% 29.95 in 10.0 mi West 4.6 mph - N/A   Clear
2:40 AM 44.6 °F 41.4 °F 42.8 °F 93% 29.94 in 10.0 mi SW 5.8 mph - N/A   Scattered Clouds
3:00 AM 44.6 °F 40.7 °F 44.6 °F 100% 29.94 in 10.0 mi WSW 6.9 mph - N/A   Mostly Cloudy
3:25 AM 44.6 °F 41.4 °F 44.6 °F 100% 29.92 in 10.0 mi WSW 5.8 mph - N/A   Overcast
3:45 AM 44.6 °F 41.4 °F 44.6 °F 100% 29.92 in 10.0 mi SW 5.8 mph - N/A   Overcast
4:50 AM 42.8 °F 41.1 °F 42.8 °F 100% 29.93 in 10.0 mi North 3.5 mph - N/A   Overcast
5:10 AM 42.8 °F 41.1 °F 42.8 °F 100% 29.92 in 7.0 mi NNE 3.5 mph - N/A   Mostly Cloudy
5:30 AM 42.8 °F - 42.8 °F 100% 29.92 in 7.0 mi Calm Calm - N/A   Scattered Clouds
5:50 AM 42.8 °F - 42.8 °F 100% 29.91 in 10.0 mi Calm Calm - N/A   Scattered Clouds
6:15 AM 42.8 °F 40.1 °F 42.8 °F 100% 29.91 in 10.0 mi SW 4.6 mph - N/A   Clear
6:55 AM 42.8 °F 38.6 °F 42.8 °F 100% 29.90 in 10.0 mi WSW 6.9 mph - N/A   Clear
7:15 AM 42.8 °F 39.3 °F 42.8 °F 100% 29.90 in 10.0 mi WSW 5.8 mph - N/A   Clear
7:40 AM 42.8 °F 40.1 °F 42.8 °F 100% 29.90 in 10.0 mi SW 4.6 mph - N/A   Mostly Cloudy
8:00 AM 42.8 °F 41.1 °F 42.8 °F 100% 29.90 in 10.0 mi SSW 3.5 mph - N/A   Scattered Clouds
8:20 AM 44.6 °F - 44.6 °F 100% 29.90 in 7.0 mi Calm Calm - N/A   Clear
8:40 AM 44.6 °F 41.4 °F 44.6 °F 100% 29.90 in 10.0 mi South 5.8 mph - N/A   Clear
9:05 AM 46.4 °F 44.3 °F 46.4 °F 100% 29.91 in 10.0 mi SSW 4.6 mph - N/A   Mostly Cloudy
9:25 AM 46.4 °F 45.2 °F 46.4 °F 100% 29.91 in 10.0 mi SSW 3.5 mph - N/A   Overcast
9:45 AM 48.2 °F - 46.4 °F 93% 29.91 in 10.0 mi SSW 4.6 mph - N/A   Mostly Cloudy
10:05 AM 50.0 °F - 46.4 °F 87% 29.90 in 10.0 mi SSW 6.9 mph - N/A   Scattered Clouds
10:30 AM 50.0 °F - 46.4 °F 87% 29.91 in 10.0 mi SW 8.1 mph - N/A   Mostly Cloudy
10:50 AM 51.8 °F - 46.4 °F 82% 29.90 in 10.0 mi SW 8.1 mph - N/A   Overcast
11:10 AM 50.0 °F - 46.4 °F 87% 29.90 in 10.0 mi SW 6.9 mph - N/A   Overcast
11:30 AM 53.6 °F - 46.4 °F 77% 29.89 in 10.0 mi SW 6.9 mph - N/A   Overcast
11:55 AM 51.8 °F - 46.4 °F 82% 29.90 in 10.0 mi SW 8.1 mph - N/A   Overcast
12:15 PM 55.4 °F - 46.4 °F 72% 29.89 in 10.0 mi WSW 6.9 mph - N/A   Mostly Cloudy
12:35 PM 57.2 °F - 46.4 °F 67% 29.89 in 10.0 mi WSW 11.5 mph 17.3 mph N/A   Mostly Cloudy
12:55 PM 55.4 °F - 44.6 °F 67% 29.89 in 10.0 mi WSW 9.2 mph 17.3 mph N/A   Mostly Cloudy
1:20 PM 59.0 °F - 44.6 °F 59% 29.88 in 10.0 mi SW 10.4 mph - N/A   Mostly Cloudy
1:40 PM 59.0 °F - 41.0 °F 51% 29.88 in 10.0 mi WSW 10.4 mph 18.4 mph N/A   Mostly Cloudy
2:00 PM 59.0 °F - 41.0 °F 51% 29.87 in 10.0 mi WSW 8.1 mph 19.6 mph N/A   Mostly Cloudy
2:20 PM 57.2 °F - 41.0 °F 55% 29.87 in 10.0 mi WSW 12.7 mph 21.9 mph N/A   Overcast
2:45 PM 60.8 °F - 42.8 °F 52% 29.87 in 10.0 mi NW 9.2 mph - N/A   Overcast
3:05 PM 50.0 °F - 48.2 °F 94% 29.87 in 10.0 mi North 6.9 mph - N/A   Overcast
3:25 PM 50.0 °F - 50.0 °F 100% 29.88 in 10.0 mi NNW 4.6 mph - N/A   Overcast
3:45 PM 46.4 °F 43.5 °F 46.4 °F 100% 29.88 in 1.8 mi NNE 5.8 mph - N/A   Overcast
4:10 PM 46.4 °F 42.9 °F 46.4 °F 100% 29.87 in 10.0 mi North 6.9 mph - N/A   Mostly Cloudy
4:30 PM 46.4 °F 42.4 °F 46.4 °F 100% 29.89 in 3.0 mi North 8.1 mph - N/A   Overcast
4:50 PM 46.4 °F 43.5 °F 46.4 °F 100% 29.88 in 10.0 mi NNE 5.8 mph - N/A   Overcast
5:10 PM 46.4 °F 43.5 °F 46.4 °F 100% 29.90 in 2.0 mi NNW 5.8 mph - N/A   Overcast
5:35 PM 44.6 °F - 44.6 °F 100% 29.88 in 2.5 mi Calm Calm - N/A   Overcast
5:55 PM 44.6 °F - 44.6 °F 100% 29.88 in 10.0 mi Calm Calm - N/A   Overcast
6:35 PM 44.6 °F 42.2 °F 44.6 °F 100% 29.88 in 10.0 mi SW 4.6 mph - N/A   Scattered Clouds
7:00 PM 44.6 °F 43.1 °F 44.6 °F 100% 29.90 in 10.0 mi SW 3.5 mph - N/A   Clear
7:20 PM 44.6 °F 43.1 °F 44.6 °F 100% 29.90 in 10.0 mi West 3.5 mph - N/A   Clear
7:40 PM 44.6 °F 42.2 °F 44.6 °F 100% 29.91 in 10.0 mi West 4.6 mph - N/A   Scattered Clouds
8:00 PM 44.6 °F 43.1 °F 44.6 °F 100% 29.91 in 10.0 mi West 3.5 mph - N/A   Scattered Clouds
8:25 PM 44.6 °F 43.1 °F 44.6 °F 100% 29.92 in 10.0 mi WNW 3.5 mph - N/A   Clear
8:45 PM 44.6 °F - 44.6 °F 100% 29.93 in 10.0 mi Calm Calm - N/A   Clear
9:25 PM 44.6 °F 43.1 °F 44.6 °F 100% 29.93 in 10.0 mi NW 3.5 mph - N/A   Clear
9:50 PM 44.6 °F 43.1 °F 44.6 °F 100% 29.94 in 10.0 mi West 3.5 mph - N/A   Clear
10:10 PM 44.6 °F - 44.6 °F 100% 29.94 in 10.0 mi Calm Calm - N/A   Clear
10:30 PM 44.6 °F - 42.8 °F 93% 29.94 in 10.0 mi Calm Calm - N/A   Clear
10:50 PM 44.6 °F - 42.8 °F 93% 29.94 in 10.0 mi Calm Calm - N/A   Clear
11:15 PM 44.6 °F - 41.0 °F 87% 29.95 in 10.0 mi Calm Calm - N/A   Clear
11:35 PM 44.6 °F - 41.0 °F 87% 29.94 in 10.0 mi Calm Calm - N/A   Clear